Time,TemperatureF,DewpointF,PressureIn,WindDirection,WindDirectionDegrees,WindSpeedMPH,WindSpeedGustMPH,Humidity,HourlyPrecipIn,Conditions,Clouds,dailyrainin,SoftwareType,DateUTC
2013-10-21 00:14:00,46.0,-99.9,29.68,SSE,159,6.0,15.0,-999,-99.99,,,-99.99,,2013-10-21 04:14:00,
2013-10-21 00:24:00,46.0,-99.9,29.68,SSE,159,6.0,15.0,-999,-99.99,,,-99.99,,2013-10-21 04:24:00,
2013-10-21 00:34:00,46.0,-99.9,29.68,SSE,159,6.0,15.0,-999,-99.99,,,-99.99,,2013-10-21 04:34:00,
2013-10-21 00:40:00,47.0,-99.9,29.65,South,185,9.0,13.0,-999,-99.99,,,-99.99,,2013-10-21 04:40:00,
2013-10-21 01:13:00,47.0,-99.9,29.65,South,185,9.0,13.0,-999,-99.99,,,-99.99,,2013-10-21 05:13:00,
2013-10-21 01:23:00,47.0,-99.9,29.65,South,185,9.0,13.0,-999,-99.99,,,-99.99,,2013-10-21 05:23:00,
2013-10-21 01:34:00,47.0,-99.9,29.65,South,185,9.0,13.0,-999,-99.99,,,-99.99,,2013-10-21 05:34:00,
2013-10-21 02:22:00,48.0,-99.9,29.64,SSW,208,7.0,19.0,-999,-99.99,,,-99.99,,2013-10-21 06:22:00,
2013-10-21 02:40:00,51.0,-99.9,29.65,WSW,248,23.0,29.0,-999,-99.99,,,-99.99,,2013-10-21 06:40:00,
2013-10-21 02:42:00,49.0,-99.9,29.64,WSW,256,24.0,31.0,-999,-99.99,,,-99.99,,2013-10-21 06:42:00,
2013-10-21 02:52:00,49.0,-99.9,29.64,WSW,256,24.0,31.0,-999,-99.99,,,-99.99,,2013-10-21 06:52:00,
2013-10-21 03:02:00,49.0,-99.9,29.64,WSW,256,24.0,31.0,-999,-99.99,,,-99.99,,2013-10-21 07:02:00,
2013-10-21 03:22:00,51.0,-99.9,29.65,WSW,248,23.0,29.0,-999,-99.99,,,-99.99,,2013-10-21 07:22:00,
2013-10-21 03:32:00,51.0,-99.9,29.65,WSW,248,23.0,29.0,-999,-99.99,,,-99.99,,2013-10-21 07:32:00,
2013-10-21 04:12:00,51.0,-99.9,29.65,WSW,253,23.0,26.0,-999,-99.99,,,-99.99,,2013-10-21 08:12:00,
2013-10-21 04:42:00,51.0,-99.9,29.64,WSW,253,22.0,28.0,-999,-99.99,,,-99.99,,2013-10-21 08:42:00,
2013-10-21 05:11:00,51.0,-99.9,29.63,WSW,255,23.0,27.0,-999,-99.99,,,-99.99,,2013-10-21 09:11:00,
2013-10-21 06:13:00,50.0,-99.9,29.63,West,265,26.0,31.0,-999,-99.99,,,-99.99,,2013-10-21 10:13:00,
2013-10-21 06:40:00,48.0,-99.9,29.66,West,271,32.0,38.0,-999,-99.99,,,-99.99,,2013-10-21 10:40:00,
2013-10-21 06:53:00,50.0,-99.9,29.64,West,271,31.0,31.0,-999,-99.99,,,-99.99,,2013-10-21 10:53:00,
2013-10-21 07:22:00,48.0,-99.9,29.66,West,271,32.0,38.0,-999,-99.99,,,-99.99,,2013-10-21 11:22:00,
2013-10-21 07:33:00,48.0,-99.9,29.66,West,271,32.0,38.0,-999,-99.99,,,-99.99,,2013-10-21 11:33:00,
2013-10-21 08:22:00,48.0,-99.9,29.67,West,273,32.0,40.0,-999,-99.99,,,-99.99,,2013-10-21 12:22:00,
2013-10-21 08:42:00,48.0,-99.9,29.68,West,276,32.0,42.0,-999,-99.99,,,-99.99,,2013-10-21 12:42:00,
2013-10-21 08:52:00,48.0,-99.9,29.68,West,276,32.0,42.0,-999,-99.99,,,-99.99,,2013-10-21 12:52:00,
2013-10-21 09:02:00,48.0,-99.9,29.68,West,276,32.0,42.0,-999,-99.99,,,-99.99,,2013-10-21 13:02:00,
2013-10-21 09:22:00,47.0,-99.9,29.70,WNW,283,29.0,38.0,-999,-99.99,,,-99.99,,2013-10-21 13:22:00,
2013-10-21 09:42:00,47.0,-99.9,29.72,West,276,29.0,29.0,-999,-99.99,,,-99.99,,2013-10-21 13:42:00,
2013-10-21 09:52:00,47.0,-99.9,29.72,West,276,29.0,29.0,-999,-99.99,,,-99.99,,2013-10-21 13:52:00,
2013-10-21 10:22:00,47.0,-99.9,29.73,West,281,29.0,33.0,-999,-99.99,,,-99.99,,2013-10-21 14:22:00,
2013-10-21 10:40:00,46.0,-99.9,29.73,West,267,26.0,31.0,-999,-99.99,,,-99.99,,2013-10-21 14:40:00,
2013-10-21 10:42:00,46.0,-99.9,29.73,West,263,29.0,29.0,-999,-99.99,,,-99.99,,2013-10-21 14:42:00,
2013-10-21 10:52:00,46.0,-99.9,29.73,West,263,29.0,29.0,-999,-99.99,,,-99.99,,2013-10-21 14:52:00,
2013-10-21 11:22:00,46.0,-99.9,29.73,West,267,26.0,31.0,-999,-99.99,,,-99.99,,2013-10-21 15:22:00,
2013-10-21 11:33:00,46.0,-99.9,29.73,West,267,26.0,31.0,-999,-99.99,,,-99.99,,2013-10-21 15:33:00,
2013-10-21 12:13:00,46.0,-99.9,29.75,West,265,27.0,36.0,-999,-99.99,,,-99.99,,2013-10-21 16:13:00,
2013-10-21 12:43:00,47.0,-99.9,29.74,West,271,23.0,29.0,-999,-99.99,,,-99.99,,2013-10-21 16:43:00,
2013-10-21 12:54:00,45.0,-99.9,29.74,West,265,26.0,29.0,-999,-99.99,,,-99.99,,2013-10-21 16:54:00,
2013-10-21 13:53:00,47.0,-99.9,29.74,West,274,28.0,30.0,-999,-99.99,,,-99.99,,2013-10-21 17:53:00,
2013-10-21 14:02:00,47.0,-99.9,29.74,West,274,28.0,30.0,-999,-99.99,,,-99.99,,2013-10-21 18:02:00,
2013-10-21 14:52:00,47.0,-99.9,29.73,West,270,26.0,44.0,-999,-99.99,,,-99.99,,2013-10-21 18:52:00,
2013-10-21 15:22:00,43.0,-99.9,29.73,WSW,256,21.0,29.0,-999,-99.99,,,-99.99,,2013-10-21 19:22:00,
2013-10-21 15:32:00,43.0,-99.9,29.73,WSW,256,21.0,29.0,-999,-99.99,,,-99.99,,2013-10-21 19:32:00,
2013-10-21 15:42:00,43.0,-99.9,29.73,WSW,256,21.0,29.0,-999,-99.99,,,-99.99,,2013-10-21 19:42:00,
2013-10-21 16:22:00,47.0,-99.9,29.73,WNW,282,26.0,34.0,-999,-99.99,,,-99.99,,2013-10-21 20:22:00,
2013-10-21 16:43:00,46.0,-99.9,29.73,West,276,26.0,30.0,-999,-99.99,,,-99.99,,2013-10-21 20:43:00,
2013-10-21 17:12:00,46.0,-99.9,29.74,WSW,257,29.0,35.0,-999,-99.99,,,-99.99,,2013-10-21 21:12:00,
2013-10-21 17:22:00,46.0,-99.9,29.74,WSW,257,29.0,35.0,-999,-99.99,,,-99.99,,2013-10-21 21:22:00,
2013-10-21 17:44:00,46.0,-99.9,-100.00,WSW,258,27.0,32.0,-999,-99.99,,,-99.99,,2013-10-21 21:44:00,
2013-10-21 17:54:00,46.0,-99.9,29.73,WSW,258,27.0,32.0,-999,-99.99,,,-99.99,,2013-10-21 21:54:00,
2013-10-21 18:44:00,45.0,-99.9,29.74,West,263,31.0,39.0,-999,-99.99,,,-99.99,,2013-10-21 22:44:00,
2013-10-21 18:54:00,45.0,-99.9,29.74,West,263,31.0,39.0,-999,-99.99,,,-99.99,,2013-10-21 22:54:00,
2013-10-21 19:13:00,44.0,-99.9,29.76,West,273,28.0,36.0,-999,-99.99,,,-99.99,,2013-10-21 23:13:00,
2013-10-21 19:22:00,44.0,-99.9,29.76,West,273,28.0,36.0,-999,-99.99,,,-99.99,,2013-10-21 23:22:00,
2013-10-21 19:53:00,44.0,-99.9,29.75,West,269,36.0,41.0,-999,-99.99,,,-99.99,,2013-10-21 23:53:00,
2013-10-21 20:42:00,43.0,-99.9,29.76,West,276,32.0,42.0,-999,-99.99,,,-99.99,,2013-10-22 00:42:00,
2013-10-21 21:12:00,41.0,-99.9,29.78,West,275,33.0,44.0,-999,-99.99,,,-99.99,,2013-10-22 01:12:00,
2013-10-21 21:22:00,41.0,-99.9,29.78,West,275,33.0,44.0,-999,-99.99,,,-99.99,,2013-10-22 01:22:00,
2013-10-21 21:42:00,40.0,-99.9,29.77,West,272,31.0,31.0,-999,-99.99,,,-99.99,,2013-10-22 01:42:00,
2013-10-21 21:53:00,40.0,-99.9,29.77,West,272,31.0,31.0,-999,-99.99,,,-99.99,,2013-10-22 01:53:00,
2013-10-21 22:12:00,42.0,-99.9,29.76,West,269,30.0,39.0,-999,-99.99,,,-99.99,,2013-10-22 02:12:00,
2013-10-21 22:22:00,42.0,-99.9,29.76,West,269,30.0,39.0,-999,-99.99,,,-99.99,,2013-10-22 02:22:00,
2013-10-21 22:43:00,40.0,-99.9,29.78,WNW,286,29.0,0.0,-999,-99.99,,,-99.99,,2013-10-22 02:43:00,
2013-10-21 22:52:00,40.0,-99.9,29.78,WNW,286,29.0,0.0,-999,-99.99,,,-99.99,,2013-10-22 02:52:00,
2013-10-21 23:12:00,40.0,-99.9,29.76,West,277,37.0,42.0,-999,-99.99,,,-99.99,,2013-10-22 03:12:00,
2013-10-21 23:23:00,40.0,-99.9,29.76,WNW,298,31.0,0.0,-999,-99.99,,,-99.99,,2013-10-22 03:23:00,
2013-10-21 23:34:00,40.0,-99.9,29.76,WNW,298,31.0,0.0,-999,-99.99,,,-99.99,,2013-10-22 03:34:00,
2013-10-21 23:45:00,40.0,-99.9,29.76,WNW,298,31.0,0.0,-999,-99.99,,,-99.99,,2013-10-22 03:45:00,
2013-10-21 23:55:00,40.0,-99.9,29.75,West,277,33.0,43.0,-999,-99.99,,,-99.99,,2013-10-22 03:55:00,